SCP
0 -0 0 0 0 0 0 0 0 0 0 0 0 -0 0 0 0 0 0 0 0 0 0 0 0 0 0 0 0 0 0 0 0 0 0 0 0 0 0 0 0 0 0 0
0 0 0 0 0 0 0 0 0 0 0 0 -0 0 0 0 0 0 0 0 0 0 0 0 0 0 0 0 0 0 0 0 0 0 0 0 0 0 0 0 0 0 0 0
0 0 0 0 0 0 0 0 0 0 0 0 0 0 0 0 0 0 0 0 0 0 0 0 0 0 0 0 0 0 0 0 0 0 0 0 0 0 0 0 0 0 0 0
0 0 0 0 0 0 0 0 -0 0 -0 0 0 0 0 0 -0 -0 -0 0 0 0 0 0 0 0 0 0 0 0 0 0 0 0 0 0 0 0 0 0 0 0 0 0
0 0 0 0 0 0 0 -0 -0 -0 -0 0 0 0 0 0 0 0 0 -0 -0 -0 -0 0 0 0 0 0 0 0 0 0 0 0 0 0 0 0 0 0 0 0 0 0
0 0 0 0 -0 0 0 0 -0 -0 0 0 0 0 0 0 0 0 0 0 0 -0 -0 -0 0 0 0 0 0 0 0 0 0 0 0 0 0 0 0 0 0 0 0 0
0 0 0 0 -0 0 0 0 0 0 0 0 0 0 0 0 0 0 0 0 0 0 0 0 -0 0 0 0 0 0 0 0 0 0 0 0 0 0 0 0 0 0 0 0
0 0 0 -0 0 0 0 0 0 0 0 0 0 0 0 0 0 0 0 0 0 0 0 0 0 0 0 0 0 0 -0 0 0 0 0 0 0 0 0 0 0 0 0 0
0 0 0 0 0 0 0 0 0 0 0 0 0 0 0 0 0 0 0 0 0 0 0 0 0 0 0 0 0 0 0 0 0 0 0 0 0 0 0 0 0 0 0 0
0 0 0 0 0 0 0 0 0 0 0 0 0 0 0 0 0 0 0 0 0 0 0 0 0 0 0 0 0 0 0 0 0 0 0 0 0 0 0 0 0 0 0 0
0 0 0 0 0 0 0 0 0 0 0 0 0 0 0 0 0 0 0 0 0 0 0 0 0 0 0 0 0 0 0 0 0 0 0 0 0 0 0 0 0 0 0 0
0 0 0 0 0 0 0 0 0 0 0 0 0 0 0 0 0 0 0 0 0 0 0 0 0 0 0 0 0 0 0 0 0 0 0 0 0 0 0 0 0 0 0 0
0 0 0 0 0 0 0 0 0 0 0 0 0 0 0 0 0 0 0 0 0 0 0 0 0 0 0 0 0 0 0 0 0 0 0 0 0 0 0 0 0 0 0 0
0 0 0 0 0 0 0 0 0 0 0 0 0 0 0 0 0 0 0 0 0 0 0 0 0 0 0 0 0 0 0 0 0 0 0 0 0 0 0 0 0 0 0 0
0 0 0 0 0 0 0 0 0 0 0 0 0 0 0 0 0 0 0 0 0 0 0 0 0 0 0 0 0 0 0 0 0 0 0 0 0 0 0 0 0 0 0 0
0 0 0 0 0 0 0 0 0 0 0 0 0 0 0 0 0 0 0 0 0 0 0 0 0 0 0 0 0 0 0 0 0 0 0 0 0 0 0 0 0 0 0 0
0 0 0 0 0 0 0 0 0 0 0 0 0 0 0 0 0 0 0 0 0 0 0 0 0 0 0 0 0 0 0 0 0 0 0 0 0 0 0 0 0 0 0 0
0 0 0 0 0 0 0 0 0 0 0 0 0 0 0 0 0 0 0 0 0 0 0 0 0 0 0 0 0 0 0 0 0 0 0 0 0 0 0 0 0 0 0 0
0 0 0 0 0 0 0 0 0 0 0 0 0 0 0 0 0 0 0 0 0 0 0 0 0 0 0 0 0 0 0 0 0 0 0 0 0 0 0 0 0 0 0 0
0 0 0 0 0 0 0 0 0 0 0 0 0 0 0 0 0 0 0 0 0 0 0 0 0 0 0 0 0 0 0 0 0 0 0 0 0 0 0 0 0 0 0 0
0 0 0 0 0 0 0 0 0 0 0 0 0 0 0 0 0 0 0 0 0 0 0 0 0 0 0 0 0 0 0 0 0 0 0 0 0 0 0 0 0 0 0 0
0 0 0 0 0 0 0 0 0 0 0 0 0 0 0 0 0 0 0 0 0 0 0 0 0 0 0 0 0 0 0 0 0 0 0 0 0 0 0 0 0 0 0 0
0 0 0 0 0 0 0 0 0 0 0 0 0 0 0 0 0 0 0 0 0 0 0 0 0 0 0 0 0 0 0 0 0 0 0 0 0 0 0 0 0 0 0 0
0 0 0 0 0 0 0 0 0 0 0 0 0 0 0 0 0 0 0 0 0 0 0 0 0 0 0 0 0 0 0 0 0 0 0 0 0 0 0 0 0 0 0 0
0 0 0 0 0 0 0 0 0 0 0 0 0 0 0 0 0 0 0 0 0 0 0 0 0 0 0 0 0 0 0 0 0 0 0 0 0 0 0 0 0 0 0 0
0 0 0 0 0 0 0 0 0 0 0 0 0 0 0 0 0 0 0 0 0 0 0 0 0 0 0 0 0 0 0 0 0 0 0 0 0 0 0 0 0 0 0 0
0 0 0 0 0 0 0 0 0 0 0 0 0 0 0 0 0 0 0 0 0 0 0 0 0 0 0 0 0 0 0 0 0 0 0 0 0 0 0 0 0 0 0 0
Wind_Speed_500mb
2 31 22 18 19 14 11 3 6 18 16 28 26 23 26 27 30 36 43 48 51 64 77 60 55 35 26 27 37 50 51 52 46 38 36 34 41 37 38 41 35 31 33 32
25 25 26 21 11 6 7 5 4 6 25 28 35 30 31 30 28 32 35 43 54 61 67 75 62 54 37 35 34 38 45 51 47 45 43 49 42 46 40 43 43 38 38 38
18 12 25 19 16 11 19 25 23 21 27 22 24 26 30 26 26 27 28 35 49 55 58 63 65 61 57 46 34 37 37 38 40 44 46 47 45 44 46 44 42 41 39 41
7 10 12 20 20 14 28 30 31 28 30 23 27 33 35 30 25 24 26 30 39 43 52 53 53 56 58 57 51 46 48 38 29 27 35 47 47 48 48 45 46 48 47 44
2 14 26 15 20 17 14 24 32 28 31 21 27 28 30 26 23 21 26 27 29 33 34 39 44 46 46 44 48 58 59 45 39 34 27 27 38 32 39 36 32 33 33 33
0 8 7 13 32 33 22 7 33 34 26 23 17 6 6 17 19 23 29 25 28 28 24 21 26 30 36 36 43 48 46 37 41 32 35 27 34 36 31 29 24 23 17 13
4 3 13 22 44 45 10 10 30 29 27 31 9 10 8 11 19 25 24 25 25 28 30 28 24 19 20 27 32 35 33 31 22 32 22 33 27 31 25 24 15 19 17 14
7 3 8 48 15 13 13 24 23 24 22 27 24 19 18 19 21 25 28 27 26 28 30 29 25 24 24 28 29 25 23 22 25 24 20 22 24 20 20 17 13 14 16 15
11 6 9 21 21 16 16 18 25 22 19 18 18 18 16 18 24 28 24 24 26 28 30 33 31 28 29 28 22 22 20 22 30 31 26 29 23 27 24 20 22 26 29 22
8 11 16 18 20 22 21 20 19 19 18 17 15 16 20 21 22 21 23 25 25 27 31 32 31 29 29 28 26 20 25 33 33 30 30 30 31 27 29 30 27 27 27 26
8 16 18 20 20 18 19 18 18 19 18 16 14 16 15 17 19 20 21 24 25 27 29 31 30 31 29 27 23 22 26 26 29 32 38 40 39 37 37 33 30 32 29 26
7 6 11 12 12 15 16 18 17 15 15 17 16 15 14 16 17 18 21 22 24 26 26 28 29 30 30 24 22 19 21 23 24 22 24 28 34 35 39 34 30 30 31 31
6 11 16 14 8 10 13 13 14 13 14 13 16 15 15 13 16 19 20 22 23 24 24 24 25 28 29 29 25 21 23 21 19 19 19 18 18 17 25 30 28 25 26 25
9 12 9 4 5 6 7 8 11 13 14 14 12 12 13 14 16 19 21 19 19 20 21 20 21 22 24 23 23 24 21 19 18 18 18 18 19 19 18 17 18 24 22 20
8 7 10 7 5 6 6 5 5 8 9 11 12 12 12 13 15 15 15 16 17 19 19 19 18 19 18 22 21 17 14 17 17 16 16 17 17 17 18 17 16 15 14 14
5 6 6 5 5 7 7 7 5 7 7 8 9 10 11 11 12 13 15 13 12 17 18 16 16 16 15 14 19 16 15 13 15 13 13 14 14 15 16 16 14 12 11 11
9 5 3 1 3 7 8 8 7 6 7 8 7 6 8 9 10 9 11 13 15 16 16 17 16 15 13 11 17 14 14 15 16 13 14 14 14 14 13 12 12 10 10 9
9 8 5 3 3 3 5 7 8 7 6 4 5 4 3 1 5 9 10 11 12 14 15 15 15 15 15 13 12 13 12 12 11 11 10 9 11 11 11 10 11 10 11 13
9 8 9 9 7 8 9 9 9 7 7 6 5 5 5 6 7 8 8 10 15 14 17 15 13 15 14 12 11 12 11 9 9 9 10 12 10 10 10 10 10 10 10 9
13 13 13 14 14 13 12 11 9 8 7 6 3 4 5 6 8 9 11 15 13 10 13 13 12 16 13 12 11 10 8 9 8 7 6 7 8 10 14 10 9 9 9 9
14 14 15 15 15 15 13 12 9 8 6 4 3 3 6 9 11 10 11 6 28 15 16 20 14 5 11 6 11 8 7 7 6 5 5 6 7 6 5 5 5 5 4 4
14 15 16 15 13 13 12 10 8 5 3 3 5 8 12 16 20 19 17 6 13 14 9 10 12 10 7 7 6 7 5 4 4 4 4 4 3 3 3 2 2 2 3 3
13 13 12 11 10 7 6 4 2 2 4 6 9 11 8 10 9 9 8 18 7 14 7 18 15 13 6 7 6 5 5 4 3 3 2 2 2 2 3 5 3 5 6 7
12 10 9 8 6 5 4 7 5 10 10 15 16 14 10 10 13 11 14 18 16 11 13 18 15 10 3 7 7 6 3 4 4 4 6 6 5 5 5 7 6 7 11 11
11 9 6 5 1 3 7 8 9 11 14 12 15 16 15 13 11 14 13 17 19 9 11 29 20 11 7 6 8 7 6 7 11 4 7 7 8 8 8 9 13 10 13 13
6 3 3 6 6 8 10 13 16 18 21 22 23 22 21 19 17 15 16 19 14 16 10 16 16 15 10 12 13 12 12 11 13 12 17 12 12 14 13 14 14 14 14 15
3 4 6 8 11 11 13 14 17 19 20 23 22 22 20 21 19 19 17 14 15 16 17 17 18 19 16 15 13 14 15 14 20 18 17 15 16 15 16 18 18 18 19 21
Wind_Direction_500mb
27 135 152 143 147 166 150 13 309 26 356 69 76 74 70 67 54 41 33 30 24 29 30 23 23 35 66 108 153 161 166 165 166 176 183 184 177 178 200 195 185 193 199 199
77 96 105 98 89 102 69 52 332 293 76 78 83 78 63 54 51 47 36 32 36 37 42 28 27 32 48 74 109 148 162 162 163 174 180 175 178 180 187 191 196 197 201 202
98 105 127 82 28 60 93 52 9 35 14 77 73 65 42 53 48 41 38 38 42 42 37 47 31 36 44 53 77 103 131 140 150 166 180 179 186 184 187 188 195 199 204 208
112 209 121 79 34 15 88 54 23 5 27 41 96 87 62 50 47 29 30 34 37 37 41 35 44 36 41 47 57 68 80 88 112 128 148 167 176 184 190 191 199 204 207 209
11 70 118 113 34 17 342 64 26 9 15 106 128 105 56 41 46 35 33 24 30 32 40 36 28 37 36 39 44 51 54 54 66 80 89 117 134 137 152 157 164 171 185 191
227 152 174 34 356 349 311 107 8 7 16 357 168 317 56 22 44 40 31 24 27 32 33 39 39 22 28 30 36 42 46 40 52 59 65 87 95 92 89 110 117 111 107 131
46 27 100 358 318 315 256 28 9 23 28 36 78 56 90 43 45 47 31 28 31 35 36 39 41 41 36 32 39 42 39 35 39 46 57 56 75 76 72 72 86 92 75 52
322 334 93 353 14 36 329 25 34 45 50 70 80 74 55 41 35 42 38 33 37 40 36 36 44 54 49 52 42 47 50 56 62 64 76 70 62 72 89 96 87 100 84 79
22 59 53 32 52 36 37 49 42 53 50 66 72 67 56 38 36 40 36 36 43 46 45 37 39 50 50 40 51 51 55 59 66 68 65 64 85 87 96 94 87 77 94 98
192 74 66 57 55 49 46 49 45 46 44 48 55 47 46 45 39 35 36 40 39 43 45 47 39 40 61 49 32 47 54 53 55 60 67 81 80 81 97 95 97 98 91 87
92 128 111 67 50 43 45 46 43 42 42 37 38 42 45 47 44 39 35 40 48 47 44 41 39 43 46 53 47 49 55 57 65 64 73 76 80 84 87 89 95 97 92 99
59 45 73 79 54 43 44 36 30 33 37 38 44 44 48 52 51 53 46 41 43 45 48 46 43 44 51 70 84 58 54 56 67 67 60 60 69 72 72 72 80 84 93 93
88 76 103 112 83 61 49 39 33 34 34 33 38 47 55 60 58 58 56 52 44 40 45 45 50 55 57 59 61 75 86 79 71 79 84 87 86 67 63 69 69 80 87 91
100 125 127 154 81 55 43 38 38 40 43 43 40 49 67 66 58 56 52 50 53 51 47 48 49 57 61 59 66 61 60 72 76 77 75 77 79 86 95 83 75 77 78 80
77 77 86 105 67 32 15 7 22 32 32 39 43 46 46 52 53 50 53 51 35 41 43 44 46 51 59 63 47 48 58 59 52 57 68 70 64 67 70 68 67 69 58 62
120 102 84 73 37 19 14 21 51 44 48 52 59 60 61 66 62 51 46 53 53 39 32 34 36 40 51 63 58 36 36 65 66 53 53 55 61 61 61 60 52 44 40 54
194 207 161 118 18 25 34 48 69 84 85 84 84 86 56 44 31 30 23 21 17 13 12 8 14 13 13 36 50 30 36 26 47 43 50 50 56 56 55 59 56 38 36 50
80 83 78 89 148 115 73 78 85 97 116 145 85 76 54 31 354 358 356 0 359 358 355 356 356 357 357 0 35 23 21 25 29 36 38 57 50 51 57 61 64 65 48 35
84 87 84 92 98 120 125 134 151 144 101 84 59 33 14 1 2 5 7 15 22 4 348 354 357 357 355 359 38 13 17 28 31 33 36 44 41 53 59 61 62 65 60 54
89 93 100 101 109 120 129 120 113 113 107 100 75 29 6 358 358 6 9 0 341 339 348 354 12 357 359 8 48 16 24 24 27 25 72 55 53 41 26 37 67 55 49 44
110 115 114 111 114 117 117 117 120 119 109 91 73 8 353 349 348 354 24 317 307 340 1 1 337 10 341 18 28 12 25 28 37 39 48 43 39 44 41 42 41 46 44 37
115 123 125 126 128 133 134 132 127 117 94 56 20 11 19 357 353 346 335 306 320 325 5 331 315 321 321 47 2 14 19 24 23 27 24 33 28 9 354 353 357 329 330 330
130 132 135 123 106 126 119 108 79 37 345 339 345 353 351 343 335 334 307 312 323 309 355 293 316 319 313 359 2 359 357 7 6 347 341 338 335 320 307 264 281 304 300 297
139 139 134 138 98 47 6 310 23 303 325 327 322 324 335 322 316 325 325 322 318 326 318 304 330 344 28 1 354 347 346 321 322 313 299 348 304 319 298 292 295 294 303 310
154 148 150 129 343 319 324 301 302 294 303 300 287 307 324 306 315 298 291 299 315 336 297 314 326 336 4 318 320 323 321 315 274 262 296 294 294 302 301 297 306 292 287 307
155 198 253 269 287 306 308 305 302 299 297 295 292 280 287 298 301 313 308 304 299 298 310 295 310 307 304 307 300 309 305 297 306 306 285 296 292 293 295 299 298 300 297 294
263 279 289 303 302 305 296 294 302 296 295 293 290 287 283 288 290 292 286 289 298 293 298 301 301 302 289 280 296 298 299 298 293 285 281 279 281 283 284 290 292 291 289 289
Wind_Speed_850mb
2 31 22 18 19 14 11 3 6 18 16 28 26 23 26 27 30 36 43 48 51 64 77 60 55 35 26 27 37 50 51 52 46 38 36 34 41 37 38 41 35 31 33 32
25 25 26 21 11 6 7 5 4 6 25 28 35 30 31 30 28 32 35 43 54 61 67 75 62 54 37 35 34 38 45 51 47 45 43 49 42 46 40 43 43 38 38 38
18 12 25 19 16 11 19 25 23 21 27 22 24 26 30 26 26 27 28 35 49 55 58 63 65 61 57 46 34 37 37 38 40 44 46 47 45 44 46 44 42 41 39 41
7 10 12 20 20 14 28 30 31 28 30 23 27 33 35 30 25 24 26 30 39 43 52 53 53 56 58 57 51 46 48 38 29 27 35 47 47 48 48 45 46 48 47 44
2 14 26 15 20 17 14 24 32 28 31 21 27 28 30 26 23 21 26 27 29 33 34 39 44 46 46 44 48 58 59 45 39 34 27 27 38 32 39 36 32 33 33 33
0 8 7 13 32 33 22 7 33 34 26 23 17 6 6 17 19 23 29 25 28 28 24 21 26 30 36 36 43 48 46 37 41 32 35 27 34 36 31 29 24 23 17 13
4 3 13 22 44 45 10 10 30 29 27 31 9 10 8 11 19 25 24 25 25 28 30 28 24 19 20 27 32 35 33 31 22 32 22 33 27 31 25 24 15 19 17 14
7 3 8 48 15 13 13 24 23 24 22 27 24 19 18 19 21 25 28 27 26 28 30 29 25 24 24 28 29 25 23 22 25 24 20 22 24 20 20 17 13 14 16 15
11 6 9 21 21 16 16 18 25 22 19 18 18 18 16 18 24 28 24 24 26 28 30 33 31 28 29 28 22 22 20 22 30 31 26 29 23 27 24 20 22 26 29 22
8 11 16 18 20 22 21 20 19 19 18 17 15 16 20 21 22 21 23 25 25 27 31 32 31 29 29 28 26 20 25 33 33 30 30 30 31 27 29 30 27 27 27 26
8 16 18 20 20 18 19 18 18 19 18 16 14 16 15 17 19 20 21 24 25 27 29 31 30 31 29 27 23 22 26 26 29 32 38 40 39 37 37 33 30 32 29 26
7 6 11 12 12 15 16 18 17 15 15 17 16 15 14 16 17 18 21 22 24 26 26 28 29 30 30 24 22 19 21 23 24 22 24 28 34 35 39 34 30 30 31 31
6 11 16 14 8 10 13 13 14 13 14 13 16 15 15 13 16 19 20 22 23 24 24 24 25 28 29 29 25 21 23 21 19 19 19 18 18 17 25 30 28 25 26 25
9 12 9 4 5 6 7 8 11 13 14 14 12 12 13 14 16 19 21 19 19 20 21 20 21 22 24 23 23 24 21 19 18 18 18 18 19 19 18 17 18 24 22 20
8 7 10 7 5 6 6 5 5 8 9 11 12 12 12 13 15 15 15 16 17 19 19 19 18 19 18 22 21 17 14 17 17 16 16 17 17 17 18 17 16 15 14 14
5 6 6 5 5 7 7 7 5 7 7 8 9 10 11 11 12 13 15 13 12 17 18 16 16 16 15 14 19 16 15 13 15 13 13 14 14 15 16 16 14 12 11 11
9 5 3 1 3 7 8 8 7 6 7 8 7 6 8 9 10 9 11 13 15 16 16 17 16 15 13 11 17 14 14 15 16 13 14 14 14 14 13 12 12 10 10 9
9 8 5 3 3 3 5 7 8 7 6 4 5 4 3 1 5 9 10 11 12 14 15 15 15 15 15 13 12 13 12 12 11 11 10 9 11 11 11 10 11 10 11 13
9 8 9 9 7 8 9 9 9 7 7 6 5 5 5 6 7 8 8 10 15 14 17 15 13 15 14 12 11 12 11 9 9 9 10 12 10 10 10 10 10 10 10 9
13 13 13 14 14 13 12 11 9 8 7 6 3 4 5 6 8 9 11 15 13 10 13 13 12 16 13 12 11 10 8 9 8 7 6 7 8 10 14 10 9 9 9 9
14 14 15 15 15 15 13 12 9 8 6 4 3 3 6 9 11 10 11 6 28 15 16 20 14 5 11 6 11 8 7 7 6 5 5 6 7 6 5 5 5 5 4 4
14 15 16 15 13 13 12 10 8 5 3 3 5 8 12 16 20 19 17 6 13 14 9 10 12 10 7 7 6 7 5 4 4 4 4 4 3 3 3 2 2 2 3 3
13 13 12 11 10 7 6 4 2 2 4 6 9 11 8 10 9 9 8 18 7 14 7 18 15 13 6 7 6 5 5 4 3 3 2 2 2 2 3 5 3 5 6 7
12 10 9 8 6 5 4 7 5 10 10 15 16 14 10 10 13 11 14 18 16 11 13 18 15 10 3 7 7 6 3 4 4 4 6 6 5 5 5 7 6 7 11 11
11 9 6 5 1 3 7 8 9 11 14 12 15 16 15 13 11 14 13 17 19 9 11 29 20 11 7 6 8 7 6 7 11 4 7 7 8 8 8 9 13 10 13 13
6 3 3 6 6 8 10 13 16 18 21 22 23 22 21 19 17 15 16 19 14 16 10 16 16 15 10 12 13 12 12 11 13 12 17 12 12 14 13 14 14 14 14 15
3 4 6 8 11 11 13 14 17 19 20 23 22 22 20 21 19 19 17 14 15 16 17 17 18 19 16 15 13 14 15 14 20 18 17 15 16 15 16 18 18 18 19 21
Wind_Direction_850mb
27 135 152 143 147 166 150 13 309 26 356 69 76 74 70 67 54 41 33 30 24 29 30 23 23 35 66 108 153 161 166 165 166 176 183 184 177 178 200 195 185 193 199 199
77 96 105 98 89 102 69 52 332 293 76 78 83 78 63 54 51 47 36 32 36 37 42 28 27 32 48 74 109 148 162 162 163 174 180 175 178 180 187 191 196 197 201 202
98 105 127 82 28 60 93 52 9 35 14 77 73 65 42 53 48 41 38 38 42 42 37 47 31 36 44 53 77 103 131 140 150 166 180 179 186 184 187 188 195 199 204 208
112 209 121 79 34 15 88 54 23 5 27 41 96 87 62 50 47 29 30 34 37 37 41 35 44 36 41 47 57 68 80 88 112 128 148 167 176 184 190 191 199 204 207 209
11 70 118 113 34 17 342 64 26 9 15 106 128 105 56 41 46 35 33 24 30 32 40 36 28 37 36 39 44 51 54 54 66 80 89 117 134 137 152 157 164 171 185 191
227 152 174 34 356 349 311 107 8 7 16 357 168 317 56 22 44 40 31 24 27 32 33 39 39 22 28 30 36 42 46 40 52 59 65 87 95 92 89 110 117 111 107 131
46 27 100 358 318 315 256 28 9 23 28 36 78 56 90 43 45 47 31 28 31 35 36 39 41 41 36 32 39 42 39 35 39 46 57 56 75 76 72 72 86 92 75 52
322 334 93 353 14 36 329 25 34 45 50 70 80 74 55 41 35 42 38 33 37 40 36 36 44 54 49 52 42 47 50 56 62 64 76 70 62 72 89 96 87 100 84 79
22 59 53 32 52 36 37 49 42 53 50 66 72 67 56 38 36 40 36 36 43 46 45 37 39 50 50 40 51 51 55 59 66 68 65 64 85 87 96 94 87 77 94 98
192 74 66 57 55 49 46 49 45 46 44 48 55 47 46 45 39 35 36 40 39 43 45 47 39 40 61 49 32 47 54 53 55 60 67 81 80 81 97 95 97 98 91 87
92 128 111 67 50 43 45 46 43 42 42 37 38 42 45 47 44 39 35 40 48 47 44 41 39 43 46 53 47 49 55 57 65 64 73 76 80 84 87 89 95 97 92 99
59 45 73 79 54 43 44 36 30 33 37 38 44 44 48 52 51 53 46 41 43 45 48 46 43 44 51 70 84 58 54 56 67 67 60 60 69 72 72 72 80 84 93 93
88 76 103 112 83 61 49 39 33 34 34 33 38 47 55 60 58 58 56 52 44 40 45 45 50 55 57 59 61 75 86 79 71 79 84 87 86 67 63 69 69 80 87 91
100 125 127 154 81 55 43 38 38 40 43 43 40 49 67 66 58 56 52 50 53 51 47 48 49 57 61 59 66 61 60 72 76 77 75 77 79 86 95 83 75 77 78 80
77 77 86 105 67 32 15 7 22 32 32 39 43 46 46 52 53 50 53 51 35 41 43 44 46 51 59 63 47 48 58 59 52 57 68 70 64 67 70 68 67 69 58 62
120 102 84 73 37 19 14 21 51 44 48 52 59 60 61 66 62 51 46 53 53 39 32 34 36 40 51 63 58 36 36 65 66 53 53 55 61 61 61 60 52 44 40 54
194 207 161 118 18 25 34 48 69 84 85 84 84 86 56 44 31 30 23 21 17 13 12 8 14 13 13 36 50 30 36 26 47 43 50 50 56 56 55 59 56 38 36 50
80 83 78 89 148 115 73 78 85 97 116 145 85 76 54 31 354 358 356 0 359 358 355 356 356 357 357 0 35 23 21 25 29 36 38 57 50 51 57 61 64 65 48 35
84 87 84 92 98 120 125 134 151 144 101 84 59 33 14 1 2 5 7 15 22 4 348 354 357 357 355 359 38 13 17 28 31 33 36 44 41 53 59 61 62 65 60 54
89 93 100 101 109 120 129 120 113 113 107 100 75 29 6 358 358 6 9 0 341 339 348 354 12 357 359 8 48 16 24 24 27 25 72 55 53 41 26 37 67 55 49 44
110 115 114 111 114 117 117 117 120 119 109 91 73 8 353 349 348 354 24 317 307 340 1 1 337 10 341 18 28 12 25 28 37 39 48 43 39 44 41 42 41 46 44 37
115 123 125 126 128 133 134 132 127 117 94 56 20 11 19 357 353 346 335 306 320 325 5 331 315 321 321 47 2 14 19 24 23 27 24 33 28 9 354 353 357 329 330 330
130 132 135 123 106 126 119 108 79 37 345 339 345 353 351 343 335 334 307 312 323 309 355 293 316 319 313 359 2 359 357 7 6 347 341 338 335 320 307 264 281 304 300 297
139 139 134 138 98 47 6 310 23 303 325 327 322 324 335 322 316 325 325 322 318 326 318 304 330 344 28 1 354 347 346 321 322 313 299 348 304 319 298 292 295 294 303 310
154 148 150 129 343 319 324 301 302 294 303 300 287 307 324 306 315 298 291 299 315 336 297 314 326 336 4 318 320 323 321 315 274 262 296 294 294 302 301 297 306 292 287 307
155 198 253 269 287 306 308 305 302 299 297 295 292 280 287 298 301 313 308 304 299 298 310 295 310 307 304 307 300 309 305 297 306 306 285 296 292 293 295 299 298 300 297 294
263 279 289 303 302 305 296 294 302 296 295 293 290 287 283 288 290 292 286 289 298 293 298 301 301 302 289 280 296 298 299 298 293 285 281 279 281 283 284 290 292 291 289 289